www.pogodaiklimat.ru
ПОГОДА в Пуэрто-Принцесе
Время
(UTC), дата
09 28.05
12 28.05
15 28.05
18 28.05
00 29.05
03 29.05
06 29.05
09 29.05
12 29.05
15 29.05
18 29.05
21 29.05
00 30.05
03 30.05
06 30.05
09 30.05
12 30.05
15 30.05
18 30.05
21 30.05
00 31.05
03 31.05
06 31.05
09 31.05
12 31.05
15 31.05
18 31.05
21 31.05
00 1.06
03 1.06
06 1.06
09 1.06
12 1.06
15 1.06
18 1.06
21 1.06
00 2.06
03 2.06
06 2.06
09 2.06
12 2.06
15 2.06
18 2.06
21 2.06
00 3.06
03 3.06
06 3.06
09 3.06
12 3.06
15 3.06
18 3.06
21 3.06
00 4.06
03 4.06
06 4.06
Ветер
(напр.,м/с)
Видим. Явления Облачность Т
(С)
Тd
(С)
f
(%)
Тe
(С)
Тes
(С)
Комфортность P
(гПа)
Po
(гПа)
Тmin
(С)
Tmax
(С)
R
(мм)
R24
(мм)
S
(см)
Ю 2 25 км осадки на расстоянии 8/4 500 м
[Cb cap Ci sp]
+31.2 +25.3 71 +45 +46 опасность
перегрева
1010.4 1008.7
Ю 2 20 км зарница 8/1 500 м
[Cb cap Cs]
+29.8 +25.5 78 +44 +44 опасность
перегрева
1012.7 1011.0 +33.5
ЮЗ 1 20 км зарница {гроза} 3/3 500 м
[Cb cap Ci fib]
+28.6 +24.9 80 +41 +41 опасность
перегрева
1012.6 1010.9
З 2 20 км 1/1 570 м
[Cu med, cong Ci fib]
+27.6 +25.0 86 +40 +40 очень
душно
1011.8 1010.1
З 2 28 км 5/3 500 м
[Cb cap Ci sp]
+29.0 +25.6 82 +43 +47 опасность
перегрева
1012.3 1010.6 +26.9
Ю 2 28 км 4/3 500 м
[Cb cap Ci fib]
+32.6 +26.4 70 +49 +63 опасность
перегрева
1011.9 1010.2
Ю 3 30 км 3/3 500 м
[Cb cap Ci fib]
+33.3 +25.3 63 +48 +57 опасность
перегрева
1010.7 1009.0
Ю 2 30 км в посл. час ливневой дождь 3/3 570 м
[Cu med, cong Ci fib]
+31.9 +25.2 68 +46 +48 опасность
перегрева
1010.6 1008.9 0.0
Ю 4 15 км ливневой дождь 9/5 500 м
[Cb cap Ac As]
+28.4 +23.6 75 +39 +39 очень
душно
1012.7 1011.0 +33.5 3
ЮЗ 2 20 км {гроза, ливн. осадки} 3/3 570 м
[Cu med, cong Ci fib]
+27.1 +24.8 87 +39 +39 очень
душно
1013.1 1011.4 3
ЮЗ 2 20 км {гроза, ливн. осадки} 1/1 570 м
[Cu hum Ci fib]
+26.8 +24.8 89 +38 +38 очень
душно
1012.7 1011.0 3
ЮЗ 2 20 км зарница 4/4 500 м
[Cb cap Ci fib]
+26.6 +24.7 89 +38 +38 очень
душно
1012.7 1011.0
Ю 2 25 км гроза без осадков 9/4 500 м
[Cb cap Ac As]
+27.6 +25.0 86 +40 +41 очень
душно
1013.9 1012.2 +26.4 6 6.0
Ю 2 28 км {гроза} 9/3 570 м
[Cu med, cong Ac As]
+30.6 +24.2 69 +43 +48 опасность
перегрева
1012.8 1011.1
ЮВ 2 28 км {гроза} 9/3 570 м
[Cu med, cong Ac As]
+31.0 +25.4 72 +45 +50 опасность
перегрева
1011.3 1009.6
Ю 2 28 км 9/3 570 м
[Cu med, cong Ac cuf Cs]
+31.6 +25.0 68 +45 +46 опасность
перегрева
1011.2 1009.5
Ю 2 20 км зарница 3/1 500 м
[Cb cap Ci fib]
+29.4 +25.1 78 +43 +43 опасность
перегрева
1012.7 1011.0 +32.4
З 2 20 км зарница {ливн. осадки} 5/3 500 м
[Cb cap Ci sp]
+28.4 +25.2 83 +41 +41 опасность
перегрева
1014.3 1012.6 0.1
СЗ 2 20 км {ливн. осадки} 1/1 570 м
[Cu med, cong Ci fib]
+27.3 +24.4 84 +38 +38 очень
душно
1013.2 1011.5 0.1
СЗ 2 20 км 3/1 570 м
[Cu med, cong Ci fib]
+26.4 +23.8 86 +36 +36 очень
душно
1012.9 1011.2
З 4 28 км 6/1 570 м
[Cu med, cong Ci sp]
+27.8 +24.1 80 +39 +42 очень
душно
1013.4 1011.7 +25.8 0.1 0.1
ЮВ 5 30 км 3/1 570 м
[Cu med, cong Ci fib]
+32.6 +24.6 63 +46 +54 опасность
перегрева
1013.0 1011.3
ЮВ 5 30 км 3/1 570 м
[Cu med, cong Ci fib]
+32.7 +25.5 66 +47 +55 опасность
перегрева
1010.9 1009.2
ЮВ 4 30 км 3/1 570 м
[Cu med, cong Ci fib]
+32.0 +25.2 67 +46 +47 опасность
перегрева
1009.4 1007.7
Ю 2 20 км 9/4 570 м
[Cu med, cong Ac cuf Ci fib]
+30.2 +25.2 75 +44 +44 опасность
перегрева
1010.7 1009.0 +33.4
З 2 20 км зарница {ливн. осадки} 4/3 500 м
[Cb cap Ac cuf Ci fib]
+28.3 +25.0 82 +41 +41 опасность
перегрева
1010.8 1009.1 0.0
З 2 20 км {ливн. осадки} 1/1 570 м
[Cu med, cong Ac cuf Ci fib]
+27.6 +25.2 87 +40 +40 очень
душно
1010.6 1008.9 0.0
ЮЗ 2 20 км зарница 1/1 500 м
[Cb cap Ci fib]
+27.2 +24.8 87 +39 +39 очень
душно
1010.6 1008.9
З 2 20 км гроза без осадков {ливн. осадки} 9/5 500 м
[Cb cap Ac As Ci fib]
+25.8 +24.2 91 +36 +38 очень
душно
1012.1 1010.4 +25.6 9 9.0
СВ 6 8000 м гроза, ливневой дождь 10/3 500 м
[Cb cap Ac As]
+25.6 +23.6 89 +35 +36 очень
душно
1013.5 1011.8 3
С 3 25 км в посл. час дождь {гроза} 10/3 570 м
[Cu med, cong Ac As]
+27.3 +24.4 84 +38 +41 очень
душно
1011.0 1009.3 4
З 2 25 км в посл. час гроза 10/4 570 м
[Cu med, cong Ac As]
+28.5 +24.1 77 +40 +40 очень
душно
1010.1 1008.4
З 2 16 км {гроза} 10/3 570 м
[Cu med, cong Ac cuf Cs]
+27.2 +24.7 86 +39 +39 очень
душно
1011.0 1009.3 +28.6
З 2 20 км 9/3 570 м
[Cu med, cong Ac cuf Ci fib]
+26.6 +24.2 87 +37 +37 очень
душно
1012.0 1010.3
З 2 20 км 9/3 570 м
[Cu med, cong Ac cuf Ci fib]
+26.2 +24.0 88 +36 +36 очень
душно
1010.7 1009.0
З 2 20 км 1/1 570 м
[Cu med, cong Ac cuf Ci fib]
+25.8 +24.2 91 +36 +36 очень
душно
1010.3 1008.6
СЗ 2 28 км осадки на расстоянии 4/1 500 м
[Cb cap Cs]
+29.7 +24.6 74 +42 +47 опасность
перегрева
1011.9 1010.2 +25.8 4 4.1
ЮВ 4 30 км {ливн. осадки} 5/3 570 м
[Cu med, cong Ac cuf Ci fib]
+31.9 +24.4 65 +45 +52 опасность
перегрева
1011.8 1010.1 0.0
Ю 3 25 км {ливн. осадки} 6/3 500 м
[Cb cap Ac cuf Ci fib]
+32.2 +24.7 65 +45 +53 опасность
перегрева
1010.1 1008.4 0.0
ЮЗ 2 25 км 8/3 500 м
[Cb cap Ac cuf Cs]
+31.0 +25.4 72 +45 +46 опасность
перегрева
1009.4 1007.7
Ю 2 20 км 6/3 570 м
[Cu med, cong Cs]
+29.2 +25.0 78 +42 +42 опасность
перегрева
1011.2 1009.5 +32.5
З 2 20 км 5/3 570 м
[Cu med, cong Ci sp]
+27.4 +24.2 83 +38 +38 очень
душно
1012.3 1010.6
З 2 20 км 3/1 570 м
[Cu med, cong Ci fib]
+26.7 +23.9 85 +37 +37 очень
душно
1010.8 1009.1
З 2 20 км 1/1 570 м
[Cu med, cong Ci fib]
+26.0 +23.4 86 +35 +35 очень
душно
1010.4 1008.7
Ю 2 30 км 5/1 570 м
[Cu med, cong Ci fib]
+29.3 +24.6 76 +42 +46 опасность
перегрева
1011.9 1010.2 +25.8 0.0 0.0
ЮВ 2 30 км 4/1 570 м
[Cu med, cong Ci fib]
+32.3 +25.4 67 +47 +63 опасность
перегрева
1011.5 1009.8
З 4 12 км гроза без осадков 9/5 500 м
[Cb cap Ac As]
+31.5 +24.9 68 +45 +47 опасность
перегрева
1011.3 1009.6
З 2 12 км осадки на расстоянии {гроза} 9/4 500 м
[Cb cap Ac As]
+28.6 +23.8 75 +39 +40 очень
душно
1009.4 1007.7
З 2 20 км зарница {гроза} 9/3 500 м
[Cb cap Ac As]
+27.5 +24.2 82 +38 +38 очень
душно
1010.9 1009.2 +32.8
З 2 20 км 4/1 570 м
[Cu med, cong Ci fib]
+26.5 +23.4 83 +36 +36 очень
душно
1011.5 1009.8
З 2 20 км 3/1 600 м
[Cu hum Ci fib]
+26.2 +23.8 87 +36 +36 очень
душно
1010.1 1008.4
З 2 20 км 1/1 600 м
[Cu hum Ci fib]
+26.2 +24.3 89 +36 +36 очень
душно
1010.4 1008.7
З 2 30 км 1/1 570 м
[Cu med, cong Ci fib]
+29.5 +24.8 76 +42 +47 опасность
перегрева
1011.4 1009.7 +25.8
ЮВ 2 30 км 1/1 570 м
[Cu med, cong Ci fib]
+32.3 +24.7 64 +45 +63 опасность
перегрева
1011.4 1009.7
Ю 2 30 км 3/3 570 м
[Cu med, cong]
+32.6 +25.3 66 +47 +59 опасность
перегрева
1009.4 1007.7
Местоположение метеостанции Пуэрто-Принцеса (Филиппины): широта 9.75 долгота 118.73 высота над уровнем моря 15 м.
В архиве по умолчанию представлена погода в Пуэрто-Принцесе за последнюю неделю. Архивные данные за месяц целиком и за предыдущие месяцы, начиная с января 2011 года, Вы можете получить, выбрав интересующий диапазон дат из раскрывающегося списка и нажав кнопку "Найти!".
*Определитесь, кто Вы:
Внимание! Время в таблицах - всемирное. Для получения местного времени необходимо прибавить поправку, которая равна 8 ч.
Смотрите также архив погоды в соседних городах и на ближайших метеорологических станциях:
Партнеры нашего сайта:      
Пояснения к столбцам:
  • Ветер - указаны скорость ветра в м/с - средняя за 10 мин, порывы в срок и между сроками (в фигурных скобках) и направление, откуда дует ветер: С - северный,
  • СВ - северо-восточный, В - восточный, ЮВ - юго-восточный, Ю - южный, ЮЗ - юго-западный, З - западный, СЗ - северо-западный.
  • Видимость - горизонтальная дальность видимости в метрах или километрах. При видимости от 1 до 10 км при отсутствии осадков обычно наблюдается дымка, при ухудшении видимости до 1 км и менее - туман. В сухую погоду видимость может ухудшаться дымом, пылью или мглою.
  • Явления - указаны атмосферные явления, наблюдавшиеся в срок или в последний час перед сроком; фигурными скобками обозначены явления, наблюдавшиеся между сроками (за 1-3 часа до срока); квадратными скобками обозначены град или гололедные отложения с указанием их диаметра в мм.
  • Облачность - указаны через наклонную черту общая и нижняя облачность в баллах и высота нижней границы облаков в метрах; квадратными скобками обозначены формы облаков: Ci - перистые, Cs - перисто-слоистые, Cc - перисто-кучевые, Ac - высококучевые, As - высокослоистые, Sc - слоисто-кучевые, Ns - слоисто-дождевые, Cu - кучевые, Cb - кучево-дождевые. Подробнее классификацию облаков см. в Атласе облаков (PDF).
  • T - Температура воздуха - температура, измеренная на высоте 2 м над землей.
  • Td - Температура точки росы - температура, при понижении до которой содержащийся в воздухе водяной пар достигнет насыщения.
  • f - Относительная влажность воздуха - влажноcть воздуха, измеренная на высоте 2 м над землей.
  • Te - Эффективная температура - температура, которую ощущает одетый по сезону человек в тени. Характеристика душности погоды. При расчете учитывается влияние влажности воздуха и скорости ветра на теплоощущения человека.
  • Tes - Эффективная температура на солнце - температура, которую ощущает человек, с поправкой на солнечный нагрев. Характеристика знойности погоды. Зависит от высоты солнца над горизонтом, облачности и скорости ветра. Ночью, в пасмурную погоду, а также при ветре 12 м/с и более поправка равна нулю.
  • P - Атмосферное давление - приведенное к уровню моря атмосферное давление.
  • Po - Атмосферное давление - измеренное на уровне метеостанции атмосферное давление.
  • Tmin - Минимальная температура - минимум температуры воздуха на высоте 2 м над землей.
  • Tmax - Максимальная температура - максимум температуры воздуха на высоте 2 м над землей.
  • R - Количество осадков - Количество выпавших осадков за период времени, мм. При наведении курсора мыши на число - период времени, за который выпало указанное количество осадков.
  • R24 - Количество осадков - Количество выпавших осадков за 24 часа, мм.
  • S - Снежный покров - Высота снежного покрова, см. При наведении курсора мыши на число - состояние снежного покрова и степень покрытия местности в баллах.